Year,Month,Day,Hour,Minute,Value (Times are PST for temperature in C)
2014,07,14,00,00,19.70
2014,07,14,00,01,19.70
2014,07,14,00,02,19.60
2014,07,14,00,03,19.60
2014,07,14,00,04,19.50
2014,07,14,00,05,19.50
2014,07,14,00,06,19.40
2014,07,14,00,07,19.40
2014,07,14,00,08,19.40
2014,07,14,00,09,19.30
2014,07,14,00,10,19.30
2014,07,14,00,11,19.30
2014,07,14,00,12,19.30
2014,07,14,00,13,19.30
2014,07,14,00,14,19.20
2014,07,14,00,15,19.20
2014,07,14,00,16,19.20
2014,07,14,00,17,19.10
2014,07,14,00,18,19.10
2014,07,14,00,19,19.10
2014,07,14,00,20,19.10
2014,07,14,00,21,19.10
2014,07,14,00,22,19.00
2014,07,14,00,23,19.00
2014,07,14,00,24,19.00
2014,07,14,00,25,18.90
2014,07,14,00,26,18.90
2014,07,14,00,27,18.90
2014,07,14,00,28,18.90
2014,07,14,00,29,18.80
2014,07,14,00,30,18.80
2014,07,14,00,31,18.80
2014,07,14,00,32,18.80
2014,07,14,00,33,18.80
2014,07,14,00,34,18.70
2014,07,14,00,35,18.70
2014,07,14,00,36,18.70
2014,07,14,00,37,18.80
2014,07,14,00,38,18.80
2014,07,14,00,39,18.80
2014,07,14,00,40,18.80
2014,07,14,00,41,18.80
2014,07,14,00,42,18.80
2014,07,14,00,43,18.80
2014,07,14,00,44,18.80
2014,07,14,00,45,18.80
2014,07,14,00,46,18.70
2014,07,14,00,47,18.70
2014,07,14,00,48,18.60
2014,07,14,00,49,18.60
2014,07,14,00,50,18.50
2014,07,14,00,51,18.40
2014,07,14,00,52,18.40
2014,07,14,00,53,18.30
2014,07,14,00,54,18.30
2014,07,14,00,55,18.20
2014,07,14,00,56,18.20
2014,07,14,00,57,18.10
2014,07,14,00,58,18.10
2014,07,14,00,59,18.10
2014,07,14,01,00,18.00
2014,07,14,01,01,18.00
2014,07,14,01,02,17.90
2014,07,14,01,03,17.90
2014,07,14,01,04,17.90
2014,07,14,01,05,17.90
2014,07,14,01,06,17.90
2014,07,14,01,07,17.90
2014,07,14,01,08,17.90
2014,07,14,01,09,17.80
2014,07,14,01,10,17.80
2014,07,14,01,11,17.80
2014,07,14,01,12,17.80
2014,07,14,01,13,17.70
2014,07,14,01,14,17.70
2014,07,14,01,15,17.70
2014,07,14,01,16,17.60
2014,07,14,01,17,17.60
2014,07,14,01,18,17.50
2014,07,14,01,19,17.50
2014,07,14,01,20,17.40
2014,07,14,01,21,17.40
2014,07,14,01,22,17.40
2014,07,14,01,23,17.40
2014,07,14,01,24,17.40
2014,07,14,01,25,17.40
2014,07,14,01,26,17.40
2014,07,14,01,27,17.40
2014,07,14,01,28,17.40
2014,07,14,01,29,17.40
2014,07,14,01,30,17.40
2014,07,14,01,31,17.40
2014,07,14,01,32,17.40
2014,07,14,01,33,17.40
2014,07,14,01,34,17.40
2014,07,14,01,35,17.40
2014,07,14,01,36,17.40
2014,07,14,01,37,17.40
2014,07,14,01,38,17.30
2014,07,14,01,39,17.30
2014,07,14,01,40,17.30
2014,07,14,01,41,17.30
2014,07,14,01,42,17.30
2014,07,14,01,43,17.30
2014,07,14,01,44,17.30
2014,07,14,01,45,17.30
2014,07,14,01,46,17.30
2014,07,14,01,47,17.30
2014,07,14,01,48,17.30
2014,07,14,01,49,17.30
2014,07,14,01,50,17.30
2014,07,14,01,51,17.30
2014,07,14,01,52,17.30
2014,07,14,01,53,17.20
2014,07,14,01,54,17.20
2014,07,14,01,55,17.20
2014,07,14,01,56,17.20
2014,07,14,01,57,17.20
2014,07,14,01,58,17.20
2014,07,14,01,59,17.10
2014,07,14,02,00,17.10
2014,07,14,02,01,17.10
2014,07,14,02,02,17.10
2014,07,14,02,03,17.10
2014,07,14,02,04,17.10
2014,07,14,02,05,17.10
2014,07,14,02,06,17.10
2014,07,14,02,07,17.10
2014,07,14,02,08,17.10
2014,07,14,02,09,17.10
2014,07,14,02,10,17.20
2014,07,14,02,11,17.20
2014,07,14,02,12,17.20
2014,07,14,02,13,17.20
2014,07,14,02,14,17.20
2014,07,14,02,15,17.20
2014,07,14,02,16,17.20
2014,07,14,02,17,17.20
2014,07,14,02,18,17.30
2014,07,14,02,19,17.30
2014,07,14,02,20,17.30
2014,07,14,02,21,17.30
2014,07,14,02,22,17.30
2014,07,14,02,23,17.30
2014,07,14,02,24,17.30
2014,07,14,02,25,17.30
2014,07,14,02,26,17.30
2014,07,14,02,27,17.40
2014,07,14,02,28,17.40
2014,07,14,02,29,17.40
2014,07,14,02,30,17.40
2014,07,14,02,31,17.50
2014,07,14,02,32,17.60
2014,07,14,02,33,17.60
2014,07,14,02,34,17.60
2014,07,14,02,35,17.60
2014,07,14,02,36,17.60
2014,07,14,02,37,17.50
2014,07,14,02,38,17.40
2014,07,14,02,39,17.40
2014,07,14,02,40,17.30
2014,07,14,02,41,17.30
2014,07,14,02,42,17.20
2014,07,14,02,43,17.20
2014,07,14,02,44,17.20
2014,07,14,02,45,17.20
2014,07,14,02,46,17.20
2014,07,14,02,47,17.20
2014,07,14,02,48,17.20
2014,07,14,02,49,17.20
2014,07,14,02,50,17.20
2014,07,14,02,51,17.20
2014,07,14,02,52,17.20
2014,07,14,02,53,17.30
2014,07,14,02,54,17.30
2014,07,14,02,55,17.30
2014,07,14,02,56,17.30
2014,07,14,02,57,17.30
2014,07,14,02,58,17.30
2014,07,14,02,59,17.30
2014,07,14,03,00,17.40
2014,07,14,03,01,17.40
2014,07,14,03,02,17.40
2014,07,14,03,03,17.40
2014,07,14,03,04,17.40
2014,07,14,03,05,17.40
2014,07,14,03,06,17.40
2014,07,14,03,07,17.30
2014,07,14,03,08,17.30
2014,07,14,03,09,17.40
2014,07,14,03,10,17.40
2014,07,14,03,11,17.40
2014,07,14,03,12,17.40
2014,07,14,03,13,17.30
2014,07,14,03,14,17.30
2014,07,14,03,15,17.30
2014,07,14,03,16,17.30
2014,07,14,03,17,17.30
2014,07,14,03,18,17.30
2014,07,14,03,19,17.30
2014,07,14,03,20,17.30
2014,07,14,03,21,17.30
2014,07,14,03,22,17.20
2014,07,14,03,23,17.20
2014,07,14,03,24,17.20
2014,07,14,03,25,17.20
2014,07,14,03,26,17.20
2014,07,14,03,27,17.20
2014,07,14,03,28,17.20
2014,07,14,03,29,17.20
2014,07,14,03,30,17.20
2014,07,14,03,31,17.20
2014,07,14,03,32,17.20
2014,07,14,03,33,17.20
2014,07,14,03,34,17.20
2014,07,14,03,35,17.20
2014,07,14,03,36,17.20
2014,07,14,03,37,17.20
2014,07,14,03,38,17.20
2014,07,14,03,39,17.20
2014,07,14,03,40,17.10
2014,07,14,03,41,17.10
2014,07,14,03,42,17.10
2014,07,14,03,43,17.10
2014,07,14,03,44,17.10
2014,07,14,03,45,17.10
2014,07,14,03,46,17.10
2014,07,14,03,47,17.10
2014,07,14,03,48,17.10
2014,07,14,03,49,17.10
2014,07,14,03,50,17.10
2014,07,14,03,51,17.10
2014,07,14,03,52,17.10
2014,07,14,03,53,17.00
2014,07,14,03,54,17.00
2014,07,14,03,55,17.00
2014,07,14,03,56,16.90
2014,07,14,03,57,16.90
2014,07,14,03,58,16.90
2014,07,14,03,59,16.80
2014,07,14,04,00,16.80
2014,07,14,04,01,16.70
2014,07,14,04,02,16.70
2014,07,14,04,03,16.70
2014,07,14,04,04,16.70
2014,07,14,04,05,16.70
2014,07,14,04,06,16.70
2014,07,14,04,07,16.70
2014,07,14,04,08,16.70
2014,07,14,04,09,16.70
2014,07,14,04,10,16.70
2014,07,14,04,11,16.70
2014,07,14,04,12,16.70
2014,07,14,04,13,16.80
2014,07,14,04,14,16.80
2014,07,14,04,15,16.80
2014,07,14,04,16,16.80
2014,07,14,04,17,16.80
2014,07,14,04,18,16.90
2014,07,14,04,19,16.90
2014,07,14,04,20,16.90
2014,07,14,04,21,16.80
2014,07,14,04,22,16.80
2014,07,14,04,23,16.80
2014,07,14,04,24,16.80
2014,07,14,04,25,16.80
2014,07,14,04,26,16.80
2014,07,14,04,27,16.80
2014,07,14,04,28,16.80
2014,07,14,04,29,16.80
2014,07,14,04,30,16.80
2014,07,14,04,31,16.80
2014,07,14,04,32,16.80
2014,07,14,04,33,16.80
2014,07,14,04,34,16.80
2014,07,14,04,35,16.80
2014,07,14,04,36,16.90
2014,07,14,04,37,16.90
2014,07,14,04,38,16.90
2014,07,14,04,39,17.00
2014,07,14,04,40,17.00
2014,07,14,04,41,17.10
2014,07,14,04,42,17.10
2014,07,14,04,43,17.00
2014,07,14,04,44,17.00
2014,07,14,04,45,16.90
2014,07,14,04,46,16.80
2014,07,14,04,47,16.80
2014,07,14,04,48,16.70
2014,07,14,04,49,16.70
2014,07,14,04,50,16.80
2014,07,14,04,51,16.80
2014,07,14,04,52,16.90
2014,07,14,04,53,16.90
2014,07,14,04,54,16.90
2014,07,14,04,55,17.00
2014,07,14,04,56,17.00
2014,07,14,04,57,17.10
2014,07,14,04,58,17.10
2014,07,14,04,59,17.10
2014,07,14,05,00,17.20
2014,07,14,05,01,17.20
2014,07,14,05,02,17.10
2014,07,14,05,03,17.10
2014,07,14,05,04,17.10
2014,07,14,05,05,17.10
2014,07,14,05,06,17.10
2014,07,14,05,07,17.10
2014,07,14,05,08,17.10
2014,07,14,05,09,17.00
2014,07,14,05,10,17.00
2014,07,14,05,11,16.90
2014,07,14,05,12,16.80
2014,07,14,05,13,16.70
2014,07,14,05,14,16.60
2014,07,14,05,15,16.60
2014,07,14,05,16,16.60
2014,07,14,05,17,16.60
2014,07,14,05,18,16.60
2014,07,14,05,19,16.60
2014,07,14,05,20,16.70
2014,07,14,05,21,16.70
2014,07,14,05,22,16.80
2014,07,14,05,23,16.80
2014,07,14,05,24,16.80
2014,07,14,05,25,16.80
2014,07,14,05,26,16.80
2014,07,14,05,27,16.80
2014,07,14,05,28,16.80
2014,07,14,05,29,16.80
2014,07,14,05,30,16.80
2014,07,14,05,31,16.80
2014,07,14,05,32,16.80
2014,07,14,05,33,16.80
2014,07,14,05,34,16.80
2014,07,14,05,35,16.70
2014,07,14,05,36,16.70
2014,07,14,05,37,16.60
2014,07,14,05,38,16.50
2014,07,14,05,39,16.50
2014,07,14,05,40,16.40
2014,07,14,05,41,16.40
2014,07,14,05,42,16.40
2014,07,14,05,43,16.40
2014,07,14,05,44,16.30
2014,07,14,05,45,16.30
2014,07,14,05,46,16.30
2014,07,14,05,47,16.30
2014,07,14,05,48,16.30
2014,07,14,05,49,16.30
2014,07,14,05,50,16.30
2014,07,14,05,51,16.30
2014,07,14,05,52,16.30
2014,07,14,05,53,16.30
2014,07,14,05,54,16.30
2014,07,14,05,55,16.30
2014,07,14,05,56,16.30
2014,07,14,05,57,16.20
2014,07,14,05,58,16.20
2014,07,14,05,59,16.20
2014,07,14,06,00,16.10
2014,07,14,06,01,16.10
2014,07,14,06,02,16.10
2014,07,14,06,03,16.10
2014,07,14,06,04,16.10
2014,07,14,06,05,16.00
2014,07,14,06,06,16.00
2014,07,14,06,07,16.00
2014,07,14,06,08,16.00
2014,07,14,06,09,16.00
2014,07,14,06,10,16.00
2014,07,14,06,11,16.00
2014,07,14,06,12,16.00
2014,07,14,06,13,16.00
2014,07,14,06,14,16.00
2014,07,14,06,15,16.00
2014,07,14,06,16,15.90
2014,07,14,06,17,15.90
2014,07,14,06,18,15.90
2014,07,14,06,19,15.90
2014,07,14,06,20,15.90
2014,07,14,06,21,15.90
2014,07,14,06,22,15.90
2014,07,14,06,23,15.90
2014,07,14,06,24,15.90
2014,07,14,06,25,15.90
2014,07,14,06,26,15.90
2014,07,14,06,27,16.00
2014,07,14,06,28,16.00
2014,07,14,06,29,16.00
2014,07,14,06,30,16.10
2014,07,14,06,31,16.10
2014,07,14,06,32,16.10
2014,07,14,06,33,16.10
2014,07,14,06,34,16.10
2014,07,14,06,35,16.10
2014,07,14,06,36,16.10
2014,07,14,06,37,16.10
2014,07,14,06,38,16.00
2014,07,14,06,39,16.00
2014,07,14,06,40,16.00
2014,07,14,06,41,16.00
2014,07,14,06,42,16.00
2014,07,14,06,43,16.00
2014,07,14,06,44,16.00
2014,07,14,06,45,16.00
2014,07,14,06,46,16.00
2014,07,14,06,47,16.00
2014,07,14,06,48,16.00
2014,07,14,06,49,16.00
2014,07,14,06,50,16.00
2014,07,14,06,51,16.00
2014,07,14,06,52,15.90
2014,07,14,06,53,15.90
2014,07,14,06,54,15.90
2014,07,14,06,55,16.00
2014,07,14,06,56,16.00
2014,07,14,06,57,16.00
2014,07,14,06,58,16.10
2014,07,14,06,59,16.10
2014,07,14,07,00,16.10
2014,07,14,07,01,16.20
2014,07,14,07,02,16.20
2014,07,14,07,03,16.30
2014,07,14,07,04,16.40
2014,07,14,07,05,16.50
2014,07,14,07,06,16.60
2014,07,14,07,07,16.70
2014,07,14,07,08,16.80
2014,07,14,07,09,16.80
2014,07,14,07,10,16.90
2014,07,14,07,11,17.00
2014,07,14,07,12,17.10
2014,07,14,07,13,17.10
2014,07,14,07,14,17.20
2014,07,14,07,15,17.30
2014,07,14,07,16,17.30
2014,07,14,07,17,17.40
2014,07,14,07,18,17.50
2014,07,14,07,19,17.60
2014,07,14,07,20,17.70
2014,07,14,07,21,17.80
2014,07,14,07,22,17.80
2014,07,14,07,23,17.90
2014,07,14,07,24,18.00
2014,07,14,07,25,18.00
2014,07,14,07,26,18.00
2014,07,14,07,27,18.10
2014,07,14,07,28,18.20
2014,07,14,07,29,18.20
2014,07,14,07,30,18.30
2014,07,14,07,31,18.40
2014,07,14,07,32,18.50
2014,07,14,07,33,18.50
2014,07,14,07,34,18.70
2014,07,14,07,35,18.80
2014,07,14,07,36,18.90
2014,07,14,07,37,19.00
2014,07,14,07,38,19.10
2014,07,14,07,39,19.10
2014,07,14,07,40,19.20
2014,07,14,07,41,19.20
2014,07,14,07,42,19.20
2014,07,14,07,43,19.30
2014,07,14,07,44,19.30
2014,07,14,07,45,19.30
2014,07,14,07,46,19.40
2014,07,14,07,47,19.40
2014,07,14,07,48,19.50
2014,07,14,07,49,19.60
2014,07,14,07,50,19.60
2014,07,14,07,51,19.60
2014,07,14,07,52,19.70
2014,07,14,07,53,19.70
2014,07,14,07,54,19.80
2014,07,14,07,55,19.80
2014,07,14,07,56,19.80
2014,07,14,07,57,19.70
2014,07,14,07,58,19.70
2014,07,14,07,59,19.60
2014,07,14,08,00,19.60
2014,07,14,08,01,19.60
2014,07,14,08,02,19.60
2014,07,14,08,03,19.60
2014,07,14,08,04,19.60
2014,07,14,08,05,19.70
2014,07,14,08,06,19.70
2014,07,14,08,07,19.80
2014,07,14,08,08,19.80
2014,07,14,08,09,19.80
2014,07,14,08,10,19.80
2014,07,14,08,11,19.80
2014,07,14,08,12,19.70
2014,07,14,08,13,19.70
2014,07,14,08,14,19.70
2014,07,14,08,15,19.70
2014,07,14,08,16,19.70
2014,07,14,08,17,19.80
2014,07,14,08,18,19.90
2014,07,14,08,19,20.00
2014,07,14,08,20,20.00
2014,07,14,08,21,20.10
2014,07,14,08,22,20.20
2014,07,14,08,23,20.20
2014,07,14,08,24,20.30
2014,07,14,08,25,20.30
2014,07,14,08,26,20.30
2014,07,14,08,27,20.40
2014,07,14,08,28,20.40
2014,07,14,08,29,20.40
2014,07,14,08,30,20.40
2014,07,14,08,31,20.40
2014,07,14,08,32,20.40
2014,07,14,08,33,20.40
2014,07,14,08,34,20.40
2014,07,14,08,35,20.40
2014,07,14,08,36,20.40
2014,07,14,08,37,20.40
2014,07,14,08,38,20.40
2014,07,14,08,39,20.40
2014,07,14,08,40,20.40
2014,07,14,08,41,20.40
2014,07,14,08,42,20.50
2014,07,14,08,43,20.50
2014,07,14,08,44,20.50
2014,07,14,08,45,20.60
2014,07,14,08,46,20.60
2014,07,14,08,47,20.60
2014,07,14,08,48,20.60
2014,07,14,08,49,20.60
2014,07,14,08,50,20.60
2014,07,14,08,51,20.60
2014,07,14,08,52,20.60
2014,07,14,08,53,20.70
2014,07,14,08,54,20.70
2014,07,14,08,55,20.70
2014,07,14,08,56,20.70
2014,07,14,08,57,20.80
2014,07,14,08,58,20.80
2014,07,14,08,59,20.80
2014,07,14,09,00,20.90
2014,07,14,09,01,20.90
2014,07,14,09,02,20.90
2014,07,14,09,03,20.90
2014,07,14,09,04,20.90
2014,07,14,09,05,21.00
2014,07,14,09,06,21.10
2014,07,14,09,07,21.00
2014,07,14,09,08,21.00
2014,07,14,09,09,20.90
2014,07,14,09,10,20.80
2014,07,14,09,11,20.80
2014,07,14,09,12,20.80
2014,07,14,09,13,20.80
2014,07,14,09,14,20.80
2014,07,14,09,15,20.80
2014,07,14,09,16,20.80
2014,07,14,09,17,20.90
2014,07,14,09,18,21.00
2014,07,14,09,19,21.10
2014,07,14,09,20,21.30
2014,07,14,09,21,21.40
2014,07,14,09,22,21.60
2014,07,14,09,23,21.70
2014,07,14,09,24,21.90
2014,07,14,09,25,22.10
2014,07,14,09,26,22.20
2014,07,14,09,27,22.40
2014,07,14,09,28,22.50
2014,07,14,09,29,22.60
2014,07,14,09,30,22.70
2014,07,14,09,31,22.80
2014,07,14,09,32,22.90
2014,07,14,09,33,23.00
2014,07,14,09,34,23.00
2014,07,14,09,35,23.10
2014,07,14,09,36,23.10
2014,07,14,09,37,23.10
2014,07,14,09,38,23.10
2014,07,14,09,39,23.10
2014,07,14,09,40,23.20
2014,07,14,09,41,23.20
2014,07,14,09,42,23.20
2014,07,14,09,43,23.30
2014,07,14,09,44,23.20
2014,07,14,09,45,23.20
2014,07,14,09,46,23.20
2014,07,14,09,47,23.20
2014,07,14,09,48,23.20
2014,07,14,09,49,23.20
2014,07,14,09,50,23.30
2014,07,14,09,51,23.40
2014,07,14,09,52,23.40
2014,07,14,09,53,23.40
2014,07,14,09,54,23.40
2014,07,14,09,55,23.40
2014,07,14,09,56,23.30
2014,07,14,09,57,23.30
2014,07,14,09,58,23.40
2014,07,14,09,59,23.50
2014,07,14,10,00,23.50
2014,07,14,10,01,23.60
2014,07,14,10,02,23.70
2014,07,14,10,03,23.80
2014,07,14,10,04,23.90
2014,07,14,10,05,24.00
2014,07,14,10,06,24.10
2014,07,14,10,07,24.20
2014,07,14,10,08,24.30
2014,07,14,10,09,24.30
2014,07,14,10,10,24.40
2014,07,14,10,11,24.50
2014,07,14,10,12,24.60
2014,07,14,10,13,24.60
2014,07,14,10,14,24.70
2014,07,14,10,15,24.70
2014,07,14,10,16,24.70
2014,07,14,10,17,24.70
2014,07,14,10,18,24.80
2014,07,14,10,19,24.90
2014,07,14,10,20,25.00
2014,07,14,10,21,25.10
2014,07,14,10,22,25.20
2014,07,14,10,23,25.30
2014,07,14,10,24,25.40
2014,07,14,10,25,25.50
2014,07,14,10,26,25.60
2014,07,14,10,27,25.60
2014,07,14,10,28,25.60
2014,07,14,10,29,25.70
2014,07,14,10,30,25.80
2014,07,14,10,31,25.90
2014,07,14,10,32,25.90
2014,07,14,10,33,25.90
2014,07,14,10,34,25.90
2014,07,14,10,35,26.00
2014,07,14,10,36,26.10
2014,07,14,10,37,26.20
2014,07,14,10,38,26.10
2014,07,14,10,39,26.10
2014,07,14,10,40,26.10
2014,07,14,10,41,26.20
2014,07,14,10,42,26.30
2014,07,14,10,43,26.40
2014,07,14,10,44,26.40
2014,07,14,10,45,26.40
2014,07,14,10,46,26.50
2014,07,14,10,47,26.60
2014,07,14,10,48,26.70
2014,07,14,10,49,26.70
2014,07,14,10,50,26.80
2014,07,14,10,51,26.80
2014,07,14,10,52,26.90
2014,07,14,10,53,27.00
2014,07,14,10,54,27.20
2014,07,14,10,55,27.30
2014,07,14,10,56,27.30
2014,07,14,10,57,27.30
2014,07,14,10,58,27.40
2014,07,14,10,59,27.30
2014,07,14,11,00,27.20
2014,07,14,11,01,27.20
2014,07,14,11,02,27.20
2014,07,14,11,03,27.20
2014,07,14,11,04,27.10
2014,07,14,11,05,26.80
2014,07,14,11,06,26.50
2014,07,14,11,07,26.20
2014,07,14,11,08,26.00
2014,07,14,11,09,25.80
2014,07,14,11,10,25.70
2014,07,14,11,11,25.60
2014,07,14,11,12,25.40
2014,07,14,11,13,25.30
2014,07,14,11,14,25.10
2014,07,14,11,15,24.90
2014,07,14,11,16,24.80
2014,07,14,11,17,24.70
2014,07,14,11,18,24.60
2014,07,14,11,19,24.70
2014,07,14,11,20,24.70
2014,07,14,11,21,24.80
2014,07,14,11,22,24.90
2014,07,14,11,23,24.90
2014,07,14,11,24,24.80
2014,07,14,11,25,24.70
2014,07,14,11,26,24.70
2014,07,14,11,27,24.80
2014,07,14,11,28,25.00
2014,07,14,11,29,25.20
2014,07,14,11,30,25.40
2014,07,14,11,31,25.50
2014,07,14,11,32,25.50
2014,07,14,11,33,25.40
2014,07,14,11,34,25.30
2014,07,14,11,35,25.30
2014,07,14,11,36,25.30
2014,07,14,11,37,25.30
2014,07,14,11,38,25.40
2014,07,14,11,39,25.40
2014,07,14,11,40,25.40
2014,07,14,11,41,25.30
2014,07,14,11,42,25.40
2014,07,14,11,43,25.50
2014,07,14,11,44,25.50
2014,07,14,11,45,25.50
2014,07,14,11,46,25.60
2014,07,14,11,47,25.60
2014,07,14,11,48,25.70
2014,07,14,11,49,25.80
2014,07,14,11,50,25.80
2014,07,14,11,51,25.70
2014,07,14,11,52,25.70
2014,07,14,11,53,25.70
2014,07,14,11,54,25.70
2014,07,14,11,55,25.80
2014,07,14,11,56,25.90
2014,07,14,11,57,26.00
2014,07,14,11,58,26.10
2014,07,14,11,59,26.30
2014,07,14,12,00,26.20
2014,07,14,12,01,26.00
2014,07,14,12,02,25.80
2014,07,14,12,03,25.70
2014,07,14,12,04,25.70
2014,07,14,12,05,25.80
2014,07,14,12,06,25.80
2014,07,14,12,07,25.70
2014,07,14,12,08,25.70
2014,07,14,12,09,25.70
2014,07,14,12,10,25.70
2014,07,14,12,11,25.80
2014,07,14,12,12,25.80
2014,07,14,12,13,25.90
2014,07,14,12,14,26.10
2014,07,14,12,15,26.30
2014,07,14,12,16,26.40
2014,07,14,12,17,26.50
2014,07,14,12,18,26.60
2014,07,14,12,19,26.60
2014,07,14,12,20,26.60
2014,07,14,12,21,26.70
2014,07,14,12,22,26.60
2014,07,14,12,23,26.60
2014,07,14,12,24,26.60
2014,07,14,12,25,26.70
2014,07,14,12,26,26.80
2014,07,14,12,27,26.80
2014,07,14,12,28,26.90
2014,07,14,12,29,26.90
2014,07,14,12,30,26.80
2014,07,14,12,31,26.80
2014,07,14,12,32,26.80
2014,07,14,12,33,26.90
2014,07,14,12,34,26.90
2014,07,14,12,35,26.90
2014,07,14,12,36,26.90
2014,07,14,12,37,27.00
2014,07,14,12,38,27.10
2014,07,14,12,39,27.10
2014,07,14,12,40,26.90
2014,07,14,12,41,26.80
2014,07,14,12,42,26.70
2014,07,14,12,43,26.60
2014,07,14,12,44,26.50
2014,07,14,12,45,26.50
2014,07,14,12,46,26.40
2014,07,14,12,47,26.30
2014,07,14,12,48,26.20
2014,07,14,12,49,26.30
2014,07,14,12,50,26.40
2014,07,14,12,51,26.40
2014,07,14,12,52,26.50
2014,07,14,12,53,26.40
2014,07,14,12,54,26.30
2014,07,14,12,55,26.30
2014,07,14,12,56,26.30
2014,07,14,12,57,26.20
2014,07,14,12,58,26.20
2014,07,14,12,59,26.20
2014,07,14,13,00,26.30
2014,07,14,13,01,26.40
2014,07,14,13,02,26.60
2014,07,14,13,03,26.70
2014,07,14,13,04,26.60
2014,07,14,13,05,26.60
2014,07,14,13,06,26.60
2014,07,14,13,07,26.60
2014,07,14,13,08,26.40
2014,07,14,13,09,26.20
2014,07,14,13,10,26.10
2014,07,14,13,11,25.90
2014,07,14,13,12,25.90
2014,07,14,13,13,25.90
2014,07,14,13,14,25.90
2014,07,14,13,15,25.90
2014,07,14,13,16,26.00
2014,07,14,13,17,26.00
2014,07,14,13,18,26.00
2014,07,14,13,19,25.90
2014,07,14,13,20,25.80
2014,07,14,13,21,25.80
2014,07,14,13,22,25.90
2014,07,14,13,23,26.10
2014,07,14,13,24,26.30
2014,07,14,13,25,26.40
2014,07,14,13,26,26.40
2014,07,14,13,27,26.40
2014,07,14,13,28,26.40
2014,07,14,13,29,26.40
2014,07,14,13,30,26.30
2014,07,14,13,31,26.40
2014,07,14,13,32,26.50
2014,07,14,13,33,26.40
2014,07,14,13,34,26.40
2014,07,14,13,35,26.40
2014,07,14,13,36,26.50
2014,07,14,13,37,26.70
2014,07,14,13,38,26.70
2014,07,14,13,39,26.60
2014,07,14,13,40,26.60
2014,07,14,13,41,26.60
2014,07,14,13,42,26.60
2014,07,14,13,43,26.60
2014,07,14,13,44,26.50
2014,07,14,13,45,26.40
2014,07,14,13,46,26.30
2014,07,14,13,47,26.30
2014,07,14,13,48,26.20
2014,07,14,13,49,26.10
2014,07,14,13,50,26.10
2014,07,14,13,51,26.00
2014,07,14,13,52,26.10
2014,07,14,13,53,26.20
2014,07,14,13,54,26.40
2014,07,14,13,55,26.70
2014,07,14,13,56,26.90
2014,07,14,13,57,27.00
2014,07,14,13,58,27.00
2014,07,14,13,59,27.00
2014,07,14,14,00,26.90
2014,07,14,14,01,26.80
2014,07,14,14,02,26.70
2014,07,14,14,03,26.70
2014,07,14,14,04,26.60
2014,07,14,14,05,26.70
2014,07,14,14,06,26.70
2014,07,14,14,07,26.60
2014,07,14,14,08,26.70
2014,07,14,14,09,26.70
2014,07,14,14,10,26.60
2014,07,14,14,11,26.60
2014,07,14,14,12,26.70
2014,07,14,14,13,26.60
2014,07,14,14,14,26.50
2014,07,14,14,15,26.40
2014,07,14,14,16,26.10
2014,07,14,14,17,26.00
2014,07,14,14,18,25.90
2014,07,14,14,19,25.90
2014,07,14,14,20,26.00
2014,07,14,14,21,26.00
2014,07,14,14,22,26.10
2014,07,14,14,23,26.10
2014,07,14,14,24,26.00
2014,07,14,14,25,26.10
2014,07,14,14,26,26.10
2014,07,14,14,27,26.00
2014,07,14,14,28,25.90
2014,07,14,14,29,26.00
2014,07,14,14,30,26.00
2014,07,14,14,31,26.00
2014,07,14,14,32,26.00
2014,07,14,14,33,26.00
2014,07,14,14,34,26.10
2014,07,14,14,35,26.30
2014,07,14,14,36,26.40
2014,07,14,14,37,26.40
2014,07,14,14,38,26.30
2014,07,14,14,39,26.30
2014,07,14,14,40,26.50
2014,07,14,14,41,26.70
2014,07,14,14,42,26.80
2014,07,14,14,43,26.90
2014,07,14,14,44,26.90
2014,07,14,14,45,26.90
2014,07,14,14,46,27.00
2014,07,14,14,47,26.90
2014,07,14,14,48,26.90
2014,07,14,14,49,26.80
2014,07,14,14,50,26.70
2014,07,14,14,51,26.70
2014,07,14,14,52,26.70
2014,07,14,14,53,26.80
2014,07,14,14,54,26.80
2014,07,14,14,55,26.70
2014,07,14,14,56,26.80
2014,07,14,14,57,26.80
2014,07,14,14,58,26.70
2014,07,14,14,59,26.70
2014,07,14,15,00,26.70
2014,07,14,15,01,26.70
2014,07,14,15,02,26.70
2014,07,14,15,03,26.70
2014,07,14,15,04,26.70
2014,07,14,15,05,26.70
2014,07,14,15,06,26.70
2014,07,14,15,07,26.70
2014,07,14,15,08,26.70
2014,07,14,15,09,26.80
2014,07,14,15,10,26.80
2014,07,14,15,11,26.90
2014,07,14,15,12,26.90
2014,07,14,15,13,27.00
2014,07,14,15,14,27.10
2014,07,14,15,15,27.20
2014,07,14,15,16,27.20
2014,07,14,15,17,27.10
2014,07,14,15,18,27.10
2014,07,14,15,19,27.10
2014,07,14,15,20,27.10
2014,07,14,15,21,27.10
2014,07,14,15,22,27.20
2014,07,14,15,23,27.20
2014,07,14,15,24,27.20
2014,07,14,15,25,27.30
2014,07,14,15,26,27.50
2014,07,14,15,27,27.80
2014,07,14,15,28,27.90
2014,07,14,15,29,28.00
2014,07,14,15,30,28.00
2014,07,14,15,31,28.10
2014,07,14,15,32,28.20
2014,07,14,15,33,28.20
2014,07,14,15,34,28.40
2014,07,14,15,35,28.40
2014,07,14,15,36,28.40
2014,07,14,15,37,28.30
2014,07,14,15,38,28.40
2014,07,14,15,39,28.50
2014,07,14,15,40,28.60
2014,07,14,15,41,28.40
2014,07,14,15,42,28.20
2014,07,14,15,43,28.10
2014,07,14,15,44,28.00
2014,07,14,15,45,28.00
2014,07,14,15,46,28.00
2014,07,14,15,47,27.90
2014,07,14,15,48,27.80
2014,07,14,15,49,27.80
2014,07,14,15,50,27.90
2014,07,14,15,51,27.90
2014,07,14,15,52,28.00
2014,07,14,15,53,28.00
2014,07,14,15,54,28.10
2014,07,14,15,55,28.20
2014,07,14,15,56,28.30
2014,07,14,15,57,28.40
2014,07,14,15,58,28.50
2014,07,14,15,59,28.50
2014,07,14,16,00,28.50
2014,07,14,16,01,28.40
2014,07,14,16,02,28.40
2014,07,14,16,03,28.40
2014,07,14,16,04,28.30
2014,07,14,16,05,28.20
2014,07,14,16,06,28.20
2014,07,14,16,07,28.20
2014,07,14,16,08,28.30
2014,07,14,16,09,28.30
2014,07,14,16,10,28.40
2014,07,14,16,11,28.40
2014,07,14,16,12,28.40
2014,07,14,16,13,28.50
2014,07,14,16,14,28.50
2014,07,14,16,15,28.40
2014,07,14,16,16,28.30
2014,07,14,16,17,28.20
2014,07,14,16,18,28.20
2014,07,14,16,19,28.20
2014,07,14,16,20,28.30
2014,07,14,16,21,28.30
2014,07,14,16,22,28.40
2014,07,14,16,23,28.40
2014,07,14,16,24,28.60
2014,07,14,16,25,28.70
2014,07,14,16,26,28.80
2014,07,14,16,27,28.90
2014,07,14,16,28,28.90
2014,07,14,16,29,28.90
2014,07,14,16,30,28.90
2014,07,14,16,31,28.90
2014,07,14,16,32,28.80
2014,07,14,16,33,28.80
2014,07,14,16,34,28.80
2014,07,14,16,35,28.80
2014,07,14,16,36,28.80
2014,07,14,16,37,28.80
2014,07,14,16,38,28.80
2014,07,14,16,39,28.80
2014,07,14,16,40,28.70
2014,07,14,16,41,28.60
2014,07,14,16,42,28.60
2014,07,14,16,43,28.60
2014,07,14,16,44,28.70
2014,07,14,16,45,28.70
2014,07,14,16,46,28.70
2014,07,14,16,47,28.70
2014,07,14,16,48,28.80
2014,07,14,16,49,28.80
2014,07,14,16,50,28.90
2014,07,14,16,51,28.90
2014,07,14,16,52,29.00
2014,07,14,16,53,29.00
2014,07,14,16,54,29.00
2014,07,14,16,55,28.90
2014,07,14,16,56,28.80
2014,07,14,16,57,28.80
2014,07,14,16,58,28.70
2014,07,14,16,59,28.60
2014,07,14,17,00,28.60
2014,07,14,17,01,28.60
2014,07,14,17,02,28.60
2014,07,14,17,03,28.60
2014,07,14,17,04,28.50
2014,07,14,17,05,28.50
2014,07,14,17,06,28.40
2014,07,14,17,07,28.30
2014,07,14,17,08,28.40
2014,07,14,17,09,28.40
2014,07,14,17,10,28.40
2014,07,14,17,11,28.30
2014,07,14,17,12,28.30
2014,07,14,17,13,28.30
2014,07,14,17,14,28.40
2014,07,14,17,15,28.30
2014,07,14,17,16,28.40
2014,07,14,17,17,28.40
2014,07,14,17,18,28.40
2014,07,14,17,19,28.50